Skip Page Navigation
NASA JPL Caltech
NASA Logo - Jet Propulsion Laboratory + View the NASA Portal
+ Center for Near-Earth Object Studies
JPL Home Earth Solar System Stars & Galaxies Technology
JPL Solar System Dynamics
BODIES ORBITS EPHEMERIDES TOOLS PHYSICAL DATA DISCOVERY FAQ SITE MAP

Significant website upgrade scheduled for September 27. More details available here.

JPL Small-Body Database Browser
Search: [ help ]  
434071 (2001 XO133)
Classification: Main-belt Asteroid          SPK-ID: 2434071
Ephemeris | Orbit Diagram | Orbital Elements | Mission Design | Physical Parameters | Discovery Circumstances | Close-Approach Data ]

[ show orbit diagram ]
Orbital Elements at Epoch 2459396.5 (2021-Jul-01.0) TDB
Reference: JPL 16 (heliocentric ecliptic J2000)
 Element Value Uncertainty (1-sigma)   Units 
e .1026868752701741 6.9727e-08  
a 3.09691007830311 4.0118e-08 au
q 2.778898059369453 2.2145e-07 au
i 10.81153375735675 7.2449e-06 deg
node 88.16979155663701 3.5427e-05 deg
peri 346.4931726702297 4.6105e-05 deg
M 212.5642684652638 3.1705e-05 deg
tp 2460211.751427950425
(2023-Sep-24.25142795)
0.0001834 TDB
period 1990.633552715176
5.45
3.868e-05
1.059e-07
d
yr
n .1808469466964267 3.5141e-09 deg/d
Q 3.414922097236766 4.4237e-08 au
  Orbit Determination Parameters
   # obs. used (total)      209  
   data-arc span      6767 days (18.53 yr)  
   first obs. used      2001-12-12  
   last obs. used      2020-06-22  
   planetary ephem.      DE441  
   SB-pert. ephem.      SB441-N16  
   condition code      0  
   norm. resid. RMS      .58115  
   source      ORB  
   producer      Otto Matic  
   solution date      2021-Apr-14 14:14:46  

Additional Information
 Earth MOID = 1.79534 au 
 Jupiter MOID = 1.83573 au 
 T_jup = 3.188 
[ show covariance matrix ]

Ephemeris | Orbit Diagram | Orbital Elements | Mission Design | Physical Parameters | Discovery Circumstances | Close-Approach Data ]

Physical Parameter Table
Parameter Symbol Value Units Sigma Reference Notes
absolute magnitude H 16.00   n/a E2021B25  

434071 (2001 XO133)          Discovered 2001-Dec-14 by LINEAR at Socorro
Reference: Last Updated: 2015-06-04

[ hide close-approach data ]
Close-Approach Data   ...sorted by Date/Time (TDB)
Date/Time (TDB) Time Uncertainty
(days_HH:MM)
Body Nominal Distance (au) Minimum Distance (au) Maximum Distance (au) V-relative (km/s) V-infinity (km/s) JD (TDB) Time Uncertainty (minutes) Semi-major axis (km) Semi-minor axis (km) range-LOV angle (deg) N-sigma BP Orbit Ref. Reference Modified
1901-May-05 04:25 00:07 Jupiter 1.85783514460164 1.85783435493517 1.85783593428606 3.43468560293589 3.29927674016298 2415509.684031785 6.87757400977749 424.503136511654 24.4710591046664 -86.6072651178156 2204109.3354733 T 16 CATAB v2.0f-lin.ifort 2021-Apr-14 14:14:47 2021-Apr-14 14:14
1962-Jan-14 06:55 00:04 Jupiter 1.91489847586076 1.91489729043766 1.91489966129148 3.21693949509418 3.07636701382869 2437678.788298955 3.52520487024756 216.735210501547 15.65975548545 75.5071222950388 3260351.10395353 T 16 CATAB v2.0f-lin.ifort 2021-Apr-14 14:14:47 2021-Apr-14 14:14
1972-Jan-23 22:21 00:03 Jupiter 1.9023574907667 1.90235664639498 1.90235833513875 3.47701093322992 3.34650673126244 2441340.430916958 2.67820093874329 139.658287405736 37.3327122396874 -85.3178106054789 2017473.0416474 T 16 CATAB v2.0f-lin.ifort 2021-Apr-14 14:14:47 2021-Apr-14 14:14
2032-Sep-25 15:38 < 00:01 Jupiter 1.86774615239891 1.86774561252984 1.86774669226829 3.23195305000278 3.08844959689044 2463501.151730953 0.9821408207363 97.6348361998647 18.4198760217416 81.6397101299978 2719800.12205581 T 16 CATAB v2.0f-lin.ifort 2021-Apr-14 14:14:47 2021-Apr-14 14:14
2042-Oct-14 15:57 00:02 Jupiter 1.97892581696376 1.97892486027669 1.97892677365095 3.53445813956492 3.41120970167652 2467172.164293145 1.51889097941588 118.202231215572 40.2371520881775 80.6159283924021 1894262.35021675 T 16 CATAB v2.0f-lin.ifort 2021-Apr-14 14:14:47 2021-Apr-14 14:14
2103-Jun-13 06:13 00:05 Jupiter 1.85259262740056 1.85259210122269 1.85259315357895 3.31788675810453 3.17709836363052 2489327.758765173 5.18519460519043 343.958875276629 19.9352753886296 89.4337273843593 2338635.61184627 T 16 CATAB v2.0f-lin.ifort 2021-Apr-14 14:14:47 2021-Apr-14 14:14
2164-Mar-11 17:47 00:09 Jupiter 1.96194440373125 1.96194241226928 1.96194639523604 3.12069185989735 2.9791383957407 2511515.241020363 9.45618332891562 495.96484629722 23.6067630844103 80.7227677005311 2911528.4456216 T 16 CATAB v2.0f-lin.ifort 2021-Apr-14 14:14:47 2021-Apr-14 14:14
2174-Mar-03 10:02 00:09 Jupiter 1.86721595036344 1.86721446025516 1.86721744051884 3.41625675220483 3.28078543135802 2515158.917760460 9.2854487474483 540.969522813444 28.1890516537947 -84.1481546010669 2083849.10476026 T 16 CATAB v2.0f-lin.ifort 2021-Apr-14 14:14:47 2021-Apr-14 14:14

Alternate Designations
 2001 XO133 = 2008 AN135 
Ephemeris | Orbit Diagram | Orbital Elements | Mission Design | Physical Parameters | Discovery Circumstances | Close-Approach Data ]
ABOUT SSD CREDITS/AWARDS PRIVACY/COPYRIGHT GLOSSARY LINKS
FirstGov 2021-Sep-26 01:54 UT
(server date/time)  
NASA Home Page
Site Manager:   Ryan S. Park
Webmaster  Alan B. Chamberlin